Location: Potomac
(46.8816°N, 113.5795°W)
Time: 01:52:37
(UTC+00:00)

JY1SAT - Pass Details

Date: 01 July 2022
Orbit: 564 x 586 km, 97.6° (Epoch: 15 August)

Event Time Altitude Azimuth Distance (km) Brightness Sun altitude
Exits shadow 05:49:19 11° 211° (SSW) 1,832 ? -15.8°
Maximum altitude 05:52:33 25° 266° (W) 1,192 ? -16.1°
Drops below altitude 10° 05:56:03 10° 323° (NW) 1,922 ? -16.3°
Sets 05:58:31 0° 336° (NNW) 2,827 ? -16.5°
